| time (UTC) | temp C | wind direction | speed KPH | gust KPH | rain 1hr cm | rain 24hr cm | rain mn cm | humidity % | barometer mb |
| 20260505010551 | 6 | 27 | 0.0 | 8.0 | 0.00 | 0.03 | 0.03 | 75 | 1012.0 |
| 20260505010051 | 6 | 47 | 4.8 | 9.7 | 0.00 | 0.03 | 0.03 | 74 | 1012.0 |
| 20260505005551 | 6 | 6 | 1.6 | 6.4 | 0.00 | 0.03 | 0.03 | 73 | 1012.2 |
| 20260505005051 | 7 | 77 | 1.6 | 8.0 | 0.00 | 0.03 | 0.03 | 70 | 1011.9 |
| 20260505004555 | 7 | 54 | 3.2 | 12.9 | 0.00 | 0.03 | 0.03 | 70 | 1012.0 |
| 20260505004152 | 7 | 41 | 9.7 | 14.5 | 0.00 | 0.03 | 0.03 | 69 | 1012.0 |
| 20260505003549 | 7 | 82 | 8.0 | 16.1 | 0.00 | 0.03 | 0.03 | 65 | 1012.0 |
| 20260505003053 | 8 | 67 | 8.0 | 17.7 | 0.00 | 0.03 | 0.03 | 66 | 1011.7 |
| 20260505002549 | 8 | 98 | 9.7 | 17.7 | 0.00 | 0.03 | 0.03 | 64 | 1011.7 |
| 20260505002050 | 8 | 89 | 6.4 | 16.1 | 0.00 | 0.03 | 0.03 | 61 | 1011.6 |
| 20260505001604 | 8 | 82 | 6.4 | 16.1 | 0.00 | 0.03 | 0.03 | 59 | 1011.6 |
| 20260505001049 | 8 | 91 | 3.2 | 9.7 | 0.00 | 0.03 | 0.03 | 57 | 1011.7 |
| 20260505000549 | 8 | 308 | 3.2 | 8.0 | 0.00 | 0.03 | 0.03 | 57 | 1011.5 |
| 20260505000104 | 9 | 271 | 3.2 | 8.0 | 0.00 | 0.03 | 0.03 | 57 | 1011.6 |
| 20260504235548 | 9 | 240 | 1.6 | 8.0 | 0.00 | 0.03 | 0.03 | 57 | 1011.5 |
| 20260504235051 | 8 | 212 | 3.2 | 16.1 | 0.00 | 0.03 | 0.03 | 57 | 1011.6 |
| 20260504234550 | 8 | 270 | 6.4 | 17.7 | 0.00 | 0.03 | 0.03 | 57 | 1011.6 |
| 20260504234047 | 9 | 242 | 9.7 | 17.7 | 0.00 | 0.03 | 0.03 | 57 | 1011.8 |
| 20260504233547 | 8 | 283 | 6.4 | 14.5 | 0.00 | 0.03 | 0.03 | 58 | 1011.6 |
| 20260504233102 | 8 | 302 | 6.4 | 19.3 | 0.00 | 0.03 | 0.03 | 59 | 1011.5 |
| 20260504232547 | 8 | 279 | 9.7 | 19.3 | 0.00 | 0.03 | 0.03 | 60 | 1011.6 |
| 20260504232049 | 7 | 158 | 8.0 | 24.1 | 0.00 | 0.03 | 0.03 | 61 | 1011.7 |
| 20260504231547 | 7 | 304 | 4.8 | 17.7 | 0.00 | 0.03 | 0.03 | 62 | 1011.9 |
| 20260504231048 | 7 | 218 | 3.2 | 17.7 | 0.00 | 0.03 | 0.03 | 63 | 1011.8 |
| 20260504230548 | 7 | 55 | 0.0 | 3.2 | 0.00 | 0.03 | 0.03 | 67 | 1011.7 |
| 20260504230046 | 7 | 82 | 0.0 | 3.2 | 0.00 | 0.03 | 0.03 | 69 | 1011.5 |
| 20260504225549 | 7 | 72 | 0.0 | 3.2 | 0.00 | 0.03 | 0.03 | 69 | 1011.2 |
| 20260504225045 | 7 | 149 | 0.0 | 6.4 | 0.03 | 0.03 | 0.03 | 68 | 1011.2 |
| 20260504224546 | 7 | 170 | 1.6 | 11.3 | 0.03 | 0.03 | 0.03 | 68 | 1011.1 |
| 20260504224045 | 7 | 239 | 1.6 | 16.1 | 0.03 | 0.03 | 0.03 | 67 | 1011.2 |
| 20260504223545 | 7 | 257 | 1.6 | 20.9 | 0.03 | 0.03 | 0.03 | 70 | 1011.5 |
| 20260504223047 | 6 | 252 | 8.0 | 20.9 | 0.03 | 0.03 | 0.03 | 71 | 1011.5 |
| 20260504222549 | 6 | 272 | 6.4 | 14.5 | 0.03 | 0.03 | 0.03 | 76 | 1011.7 |
| 20260504222047 | 6 | 281 | 4.8 | 14.5 | 0.03 | 0.03 | 0.03 | 77 | 1012.0 |
| 20260504221544 | 6 | 284 | 3.2 | 14.5 | 0.03 | 0.03 | 0.03 | 80 | 1012.1 |
| 20260504221044 | 6 | 291 | 4.8 | 14.5 | 0.03 | 0.03 | 0.03 | 79 | 1012.2 |
| 20260504220543 | 6 | 311 | 4.8 | 17.7 | 0.03 | 0.03 | 0.03 | 78 | 1012.3 |
| 20260504220042 | 6 | 260 | 8.0 | 20.9 | 0.03 | 0.03 | 0.03 | 76 | 1012.4 |
| 20260504215541 | 7 | 273 | 8.0 | 24.1 | 0.03 | 0.03 | 0.03 | 69 | 1012.6 |
| 20260504215040 | 8 | 289 | 6.4 | 25.7 | 0.00 | 0.00 | 0.00 | 57 | 1012.7 |
| 20260504214541 | 9 | 310 | 9.7 | 25.7 | 0.00 | 0.00 | 0.00 | 49 | 1012.4 |
| 20260504214040 | 9 | 249 | 3.2 | 17.7 | 0.00 | 0.00 | 0.00 | 48 | 1011.7 |
| 20260504213539 | 10 | 309 | 8.0 | 17.7 | 0.00 | 0.00 | 0.00 | 47 | 1011.0 |
| 20260504213039 | 10 | 109 | 8.0 | 20.9 | 0.00 | 0.00 | 0.00 | 43 | 1011.1 |
| 20260504212540 | 12 | 89 | 4.8 | 17.7 | 0.00 | 0.00 | 0.00 | 39 | 1011.1 |
| 20260504212040 | 12 | 142 | 11.3 | 17.7 | 0.00 | 0.00 | 0.00 | 31 | 1010.9 |
| 20260504211539 | 12 | 288 | 0.0 | 12.9 | 0.00 | 0.00 | 0.00 | 32 | 1010.7 |
| 20260504211040 | 12 | 330 | 1.6 | 12.9 | 0.00 | 0.00 | 0.00 | 33 | 1010.7 |
| 20260504210538 | 12 | 201 | 1.6 | 11.3 | 0.00 | 0.00 | 0.00 | 33 | 1010.6 |
| 20260504210038 | 12 | 162 | 3.2 | 22.5 | 0.00 | 0.00 | 0.00 | 34 | 1010.8 |
| 20260504205541 | 12 | 245 | 9.7 | 22.5 | 0.00 | 0.00 | 0.00 | 34 | 1010.8 |
| 20260504205036 | 13 | 351 | 3.2 | 17.7 | 0.00 | 0.00 | 0.00 | 34 | 1010.9 |
| 20260504204536 | 13 | 246 | 4.8 | 30.6 | 0.00 | 0.00 | 0.00 | 34 | 1010.9 |
| 20260504204036 | 13 | 300 | 6.4 | 30.6 | 0.00 | 0.00 | 0.00 | 35 | 1010.8 |
| 20260504203537 | 13 | 268 | 11.3 | 24.1 | 0.00 | 0.00 | 0.00 | 34 | 1010.9 |
| 20260504203034 | 12 | 310 | 14.5 | 24.1 | 0.00 | 0.00 | 0.00 | 35 | 1010.9 |
| 20260504202535 | 12 | 332 | 6.4 | 24.1 | 0.00 | 0.00 | 0.00 | 38 | 1011.0 |
| 20260504202034 | 12 | 308 | 8.0 | 24.1 | 0.00 | 0.00 | 0.00 | 40 | 1011.1 |
| 20260504201530 | 12 | 245 | 12.9 | 35.4 | 0.00 | 0.00 | 0.00 | 39 | 1011.3 |
| 20260504201029 | 11 | 298 | 12.9 | 22.5 | 0.00 | 0.00 | 0.00 | 41 | 1011.3 |
| 20260504200530 | 11 | 276 | 6.4 | 16.1 | 0.00 | 0.00 | 0.00 | 43 | 1011.5 |
| 20260504200029 | 11 | 322 | 9.7 | 16.1 | 0.00 | 0.00 | 0.00 | 46 | 1011.7 |
| 20260504195527 | 11 | 103 | 8.0 | 14.5 | 0.00 | 0.00 | 0.00 | 46 | 1011.8 |
| 20260504195027 | 10 | 217 | 1.6 | 16.1 | 0.00 | 0.00 | 0.00 | 51 | 1012.1 |
| 20260504194531 | 9 | 305 | 4.8 | 16.1 | 0.00 | 0.00 | 0.00 | 50 | 1012.2 |
| 20260504194026 | 9 | 293 | 3.2 | 14.5 | 0.00 | 0.00 | 0.00 | 49 | 1012.5 |
| 20260504193527 | 8 | 266 | 4.8 | 14.5 | 0.00 | 0.00 | 0.00 | 50 | 1012.5 |
| 20260504193027 | 8 | 302 | 3.2 | 19.3 | 0.00 | 0.00 | 0.00 | 50 | 1012.5 |
| 20260504192526 | 8 | 271 | 4.8 | 19.3 | 0.00 | 0.00 | 0.00 | 51 | 1012.6 |
| 20260504192026 | 8 | 146 | 4.8 | 16.1 | 0.00 | 0.00 | 0.00 | 50 | 1012.5 |
| 20260504191525 | 9 | 297 | 3.2 | 19.3 | 0.00 | 0.00 | 0.00 | 49 | 1012.6 |
| 20260504191025 | 10 | 301 | 8.0 | 19.3 | 0.00 | 0.00 | 0.00 | 46 | 1012.6 |
| 20260504190525 | 10 | 278 | 8.0 | 14.5 | 0.00 | 0.00 | 0.00 | 46 | 1012.3 |
| 20260504190026 | 10 | 263 | 3.2 | 24.1 | 0.00 | 0.00 | 0.00 | 43 | 1012.2 |
| 20260504185524 | 10 | 203 | 9.7 | 24.1 | 0.00 | 0.00 | 0.00 | 41 | 1012.2 |
| 20260504185024 | 10 | 354 | 8.0 | 20.9 | 0.00 | 0.00 | 0.00 | 39 | 1012.0 |
| 20260504184525 | 10 | 311 | 12.9 | 27.4 | 0.00 | 0.00 | 0.00 | 38 | 1011.9 |
| 20260504184023 | 10 | 241 | 16.1 | 30.6 | 0.00 | 0.00 | 0.00 | 38 | 1011.9 |
| 20260504183524 | 11 | 300 | 8.0 | 22.5 | 0.00 | 0.00 | 0.00 | 42 | 1011.7 |
| 20260504183023 | 11 | 260 | 11.3 | 22.5 | 0.00 | 0.00 | 0.00 | 41 | 1011.8 |
| 20260504182521 | 11 | 331 | 9.7 | 24.1 | 0.00 | 0.00 | 0.00 | 42 | 1012.0 |
| 20260504182023 | 11 | 267 | 6.4 | 24.1 | 0.00 | 0.00 | 0.00 | 42 | 1012.0 |
| 20260504181521 | 11 | 264 | 12.9 | 30.6 | 0.00 | 0.00 | 0.00 | 42 | 1012.0 |
| 20260504181021 | 11 | 287 | 9.7 | 30.6 | 0.00 | 0.00 | 0.00 | 42 | 1012.0 |
| 20260504180519 | 11 | 316 | 8.0 | 22.5 | 0.00 | 0.00 | 0.00 | 42 | 1012.2 |
| 20260504180019 | 11 | 327 | 4.8 | 22.5 | 0.00 | 0.00 | 0.00 | 41 | 1012.3 |
| 20260504175518 | 11 | 295 | 9.7 | 22.5 | 0.00 | 0.00 | 0.00 | 40 | 1012.4 |
| 20260504175020 | 11 | 284 | 9.7 | 20.9 | 0.00 | 0.00 | 0.00 | 40 | 1012.5 |
| 20260504174516 | 11 | 257 | 8.0 | 20.9 | 0.00 | 0.00 | 0.00 | 40 | 1012.5 |
| 20260504174015 | 11 | 257 | 11.3 | 25.7 | 0.00 | 0.00 | 0.00 | 40 | 1012.7 |
| 20260504173515 | 11 | 231 | 14.5 | 25.7 | 0.00 | 0.00 | 0.00 | 40 | 1012.7 |
| 20260504173018 | 11 | 274 | 12.9 | 29.0 | 0.00 | 0.00 | 0.00 | 41 | 1012.9 |
| 20260504172513 | 10 | 314 | 12.9 | 29.0 | 0.00 | 0.00 | 0.00 | 41 | 1012.9 |
| 20260504172014 | 10 | 280 | 6.4 | 22.5 | 0.00 | 0.00 | 0.00 | 42 | 1013.1 |
| 20260504171517 | 10 | 296 | 12.9 | 22.5 | 0.00 | 0.00 | 0.00 | 40 | 1013.1 |
| 20260504171012 | 10 | 226 | 4.8 | 9.7 | 0.00 | 0.00 | 0.00 | 41 | 1013.1 |
| 20260504170511 | 10 | 308 | 1.6 | 22.5 | 0.00 | 0.00 | 0.00 | 42 | 1013.2 |
| 20260504160110 | 8 | 46 | 9.7 | 16.1 | 0.00 | 0.00 | 0.00 | 48 | 1013.4 |
| 20260504151050 | 5 | 326 | 0.0 | 4.8 | 0.00 | 0.00 | 0.00 | 64 | 1014.2 |
| 20260504150550 | 5 | 319 | 1.6 | 3.2 | 0.00 | 0.00 | 0.00 | 64 | 1014.2 |
| 20260504141039 | 3 | 263 | 1.6 | 6.4 | 0.00 | 0.00 | 0.00 | 63 | 1015.0 |
| 20260504140539 | 3 | 271 | 1.6 | 4.8 | 0.00 | 0.00 | 0.00 | 64 | 1014.9 |
| 20260504130534 | 1 | 312 | 1.6 | 6.4 | 0.00 | 0.00 | 0.00 | 65 | 1014.7 |
| 20260504110525 | -1 | 295 | 1.6 | 4.8 | 0.00 | 0.00 | 0.00 | 70 | 1014.2 |
| 20260504100519 | 0 | 278 | 1.6 | 9.7 | 0.00 | 0.00 | 0.00 | 68 | 1014.3 |
| 20260504081508 | 0 | 248 | 4.8 | 8.0 | 0.00 | 0.00 | 0.00 | 69 | 1015.2 |
| 20260504081005 | 0 | 284 | 4.8 | 8.0 | 0.00 | 0.00 | 0.00 | 69 | 1015.2 |
| 20260504080504 | 0 | 284 | 1.6 | 8.0 | 0.00 | 0.00 | 0.00 | 69 | 1015.3 |
| 20260504050542 | 3 | 277 | 3.2 | 11.3 | 0.00 | 0.00 | 0.00 | 58 | 1016.5 |
| 20260504045543 | 3 | 300 | 3.2 | 9.7 | 0.00 | 0.00 | 0.00 | 57 | 1016.5 |
| 20260504045039 | 4 | 239 | 3.2 | 9.7 | 0.00 | 0.00 | 0.00 | 56 | 1016.5 |
| 20260504044539 | 4 | 266 | 4.8 | 12.9 | 0.00 | 0.00 | 0.00 | 55 | 1016.5 |
| 20260504044039 | 5 | 274 | 4.8 | 12.9 | 0.00 | 0.00 | 0.00 | 55 | 1016.6 |
| 20260504043539 | 5 | 302 | 3.2 | 11.3 | 0.00 | 0.00 | 0.00 | 54 | 1016.6 |
| 20260504043047 | 5 | 245 | 6.4 | 12.9 | 0.00 | 0.00 | 0.00 | 54 | 1016.6 |
| 20260504042540 | 5 | 280 | 6.4 | 12.9 | 0.00 | 0.00 | 0.00 | 54 | 1016.6 |
| 20260504042042 | 5 | 276 | 4.8 | 9.7 | 0.00 | 0.00 | 0.00 | 55 | 1016.7 |
| 20260504041539 | 5 | 271 | 3.2 | 11.3 | 0.00 | 0.00 | 0.00 | 55 | 1016.6 |
| 20260504041038 | 5 | 252 | 6.4 | 11.3 | 0.00 | 0.00 | 0.00 | 55 | 1016.6 |
| 20260504040538 | 5 | 300 | 6.4 | 12.9 | 0.00 | 0.00 | 0.00 | 55 | 1016.6 |
| 20260504040036 | 5 | 266 | 4.8 | 12.9 | 0.00 | 0.00 | 0.00 | 54 | 1016.7 |
| 20260504035536 | 5 | 269 | 3.2 | 6.4 | 0.00 | 0.00 | 0.00 | 56 | 1016.6 |
| 20260504035036 | 4 | 278 | 1.6 | 6.4 | 0.00 | 0.00 | 0.00 | 57 | 1016.7 |
| 20260504034536 | 5 | 283 | 3.2 | 6.4 | 0.00 | 0.00 | 0.00 | 57 | 1016.7 |
| 20260504034035 | 5 | 284 | 3.2 | 6.4 | 0.00 | 0.00 | 0.00 | 56 | 1016.6 |
| 20260504033538 | 5 | 277 | 1.6 | 9.7 | 0.00 | 0.00 | 0.00 | 55 | 1016.6 |
| 20260504033037 | 5 | 267 | 1.6 | 9.7 | 0.00 | 0.00 | 0.00 | 55 | 1016.8 |
| 20260504032535 | 5 | 259 | 1.6 | 6.4 | 0.00 | 0.00 | 0.00 | 55 | 1016.8 |
| 20260504032035 | 5 | 231 | 3.2 | 6.4 | 0.00 | 0.00 | 0.00 | 54 | 1016.8 |
| 20260504031540 | 6 | 281 | 3.2 | 11.3 | 0.00 | 0.00 | 0.00 | 54 | 1016.7 |
| 20260504031036 | 6 | 284 | 4.8 | 11.3 | 0.00 | 0.00 | 0.00 | 52 | 1016.7 |
| 20260504030535 | 6 | 285 | 3.2 | 9.7 | 0.00 | 0.00 | 0.00 | 50 | 1016.6 |
| 20260504030034 | 7 | 253 | 3.2 | 11.3 | 0.00 | 0.00 | 0.00 | 49 | 1016.5 |
| 20260504025534 | 7 | 253 | 4.8 | 16.1 | 0.00 | 0.00 | 0.00 | 49 | 1016.5 |
| 20260504025034 | 7 | 291 | 6.4 | 9.7 | 0.00 | 0.00 | 0.00 | 50 | 1016.7 |
| 20260504024536 | 7 | 269 | 4.8 | 14.5 | 0.00 | 0.00 | 0.00 | 49 | 1016.5 |
| 20260504024033 | 7 | 280 | 8.0 | 14.5 | 0.00 | 0.00 | 0.00 | 50 | 1016.4 |
| 20260504023533 | 6 | 278 | 4.8 | 11.3 | 0.00 | 0.00 | 0.00 | 51 | 1016.4 |
| 20260504023033 | 6 | 273 | 3.2 | 8.0 | 0.00 | 0.00 | 0.00 | 52 | 1016.3 |
| 20260504022533 | 6 | 280 | 3.2 | 6.4 | 0.00 | 0.00 | 0.00 | 51 | 1016.3 |
| 20260504022033 | 7 | 287 | 3.2 | 6.4 | 0.00 | 0.00 | 0.00 | 50 | 1016.2 |
| 20260504021533 | 7 | 273 | 1.6 | 6.4 | 0.00 | 0.00 | 0.00 | 49 | 1016.2 |
| 20260504021034 | 7 | 283 | 1.6 | 6.4 | 0.00 | 0.00 | 0.00 | 50 | 1016.1 |
| 20260504020532 | 7 | 286 | 1.6 | 6.4 | 0.00 | 0.00 | 0.00 | 51 | 1016.1 |
| 20260504020033 | 7 | 261 | 1.6 | 4.8 | 0.00 | 0.00 | 0.00 | 51 | 1016.0 |
| 20260504015532 | 7 | 311 | 1.6 | 4.8 | 0.00 | 0.00 | 0.00 | 51 | 1016.1 |
| 20260504015032 | 7 | 281 | 1.6 | 4.8 | 0.00 | 0.00 | 0.00 | 50 | 1016.0 |
| 20260504014538 | 8 | 273 | 1.6 | 4.8 | 0.00 | 0.00 | 0.00 | 49 | 1015.8 |
| 20260504014032 | 8 | 264 | 1.6 | 4.8 | 0.00 | 0.00 | 0.00 | 48 | 1015.9 |
| 20260504013530 | 8 | 288 | 1.6 | 4.8 | 0.00 | 0.00 | 0.00 | 46 | 1015.8 |
| 20260504013030 | 9 | 257 | 0.0 | 4.8 | 0.00 | 0.00 | 0.00 | 43 | 1015.8 |
| 20260504012533 | 9 | 288 | 0.0 | 3.2 | 0.00 | 0.00 | 0.00 | 42 | 1015.8 |
| 20260504012033 | 10 | 272 | 0.0 | 1.6 | 0.00 | 0.00 | 0.00 | 40 | 1015.8 |
| 20260504011530 | 10 | 172 | 0.0 | 3.2 | 0.00 | 0.00 | 0.00 | 39 | 1015.8 |
| 20260504011029 | 10 | 218 | 0.0 | 3.2 | 0.00 | 0.00 | 0.00 | 38 | 1015.7 |